Home > Weather > Chatham-Kent > Past weeks

Flag for Canada Weather for the Past 2 Weeks in Chatham-Kent, Ontario, Canada

Now
17 °F

Cold.


Feels Like: 17 °F
Forecast: 13 / 23 °F
Wind: 2 mph from Southeast

Location: Erieau

Current Time: Feb 11, 2016 at 11:01:38 PM

Latest Report: Feb 11, 2016 at 10:00 PM


Visibility: N/A

Pressure: 30.27 "Hg

Humidity: 64%

Dew point: 7 °F

Location of Chatham-KentLocation

Historic Weather in Chatham-Kent — Graph

°F

Chatham-Kent Temperature Yesterday

Maximum temperature yesterday: 26 °F (at 3:00 AM)
Minimum temperature yesterday: 13 °F (at 11:00 PM)
Average temperature yesterday: 20 °F

High & Low Weather Summary for the Past Weeks

 TemperatureHumidityPressure
High44 °F (Feb 3, 4:00 PM)100% (Feb 8, 3:00 PM)30.39 "Hg (Feb 8, 3:00 PM)
Low10 °F (Feb 11, 4:00 AM)54% (Feb 11, 3:00 PM)29.50 "Hg (Feb 3, 6:00 AM)
Average32 °F82%29.89 "Hg
* Reported Jan 27 9:00 PM — Feb 11 9:00 PM, Chatham-Kent, Weather by CustomWeather, © 2016

Note: Actual official high and low records may vary slightly from our data, if they occured in-between our weather recording intervals... More about our weather records

Advertising

Chatham-Kent Weather History for the Previous 24 Hours

 ConditionsComfort  
Time TempWeatherWind HumidityBarometerVisibility
9:00 PM
Thu, Feb 11
14 °FCold.1 mph61%30.29 "HgN/A
8:00 PM15 °FCold.3 mph63%30.29 "HgN/A
7:00 PM15 °FCold.3 mph60%30.28 "HgN/A
6:00 PM15 °FCold.3 mph59%30.27 "HgN/A
5:00 PM17 °FCold.5 mph54%30.27 "HgN/A
4:00 PM17 °FCold.7 mph55%30.25 "HgN/A
3:00 PM17 °FCold.9 mph54%30.23 "HgN/A
2:00 PM16 °FCold.8 mph59%30.22 "HgN/A
1:00 PM16 °FCold.10 mph62%30.22 "HgN/A
12:00 PM17 °FCold.10 mph62%30.22 "HgN/A
11:00 AM14 °FCold.7 mph67%30.20 "HgN/A
10:00 AM13 °FCold.10 mph69%30.18 "HgN/A
9:00 AM13 °FCold.8 mph69%30.15 "HgN/A
8:00 AM11 °FCold.9 mph70%30.13 "HgN/A
7:00 AM11 °FCold.9 mph66%30.11 "HgN/A
6:00 AM10 °FCold.9 mph66%30.08 "HgN/A
5:00 AM10 °FCold.12 mph65%30.06 "HgN/A
4:00 AM10 °FFrigid.10 mph65%30.04 "HgN/A
3:00 AM10 °FFrigid.12 mph65%30.03 "HgN/A
2:00 AM11 °FCold.10 mph66%30.02 "HgN/A
1:00 AM11 °FCold.10 mph64%30.01 "HgN/A
12:00 AM12 °FCold.8 mph61%30.00 "HgN/A
11:00 PM
Wed, Feb 10
13 °FCold.10 mph61%29.99 "HgN/A
Weather by CustomWeather, © 2016

See weather overviewHow to use our weather pages